Location: Proctor
(47.8934°N, 114.3048°W)
Time: 04:47:33
(UTC+00:00)

ISS - Pass Details

Date: 22 May 2024
Orbit: 409 x 421 km, 51.6° (Epoch: 13 June)

Event Time Altitude Azimuth Distance (km) Brightness Sun altitude
Rises 05:38:27 0° 292° (WNW) 2,374 0.9 -16.9°
Reaches altitude 10° 05:40:35 10° 288° (WNW) 1,505 -0.3 -17.0°
Maximum altitude 05:43:53 54° 211° (SSW) 514 -3.6 -17.3°
Enters shadow 05:44:17 50° 181° (S) 539 -3.6 -17.3°
